www.pogodaiklimat.ru

Погода и климат >> Архив погоды >> Россия >> Якутия >> Тикси


АРХИВ ПОГОДЫ в Тикси

Время (UTC), дата Ветер
(напр.,м/с)
 
Видим.   Явления Облачность Т
(С)
Тd
(С)
f
(%)
Тe
(С)
Тes
(С)
Комфортность P
(гПа)
Po
(гПа)
Тmin
(С)
Tmax
(С)
R
(мм)
R24
(мм)
S
(см)
21 15.04 З 2 20 км в посл. час снег [диам. изморози 2 мм] 10/0
[Ac trans Ci fib]
-24.9 -26.2 89 -32 -31 опасность
обморожения
1008.2 1007.3
00 16.04 З 2 4000 м слаб. снег [диам. изморози 2 мм] 10/0
[Ac trans Cs]
-22.5 -23.7 90 -29 -27 по сезону 1007.7 1006.8 -30.8 0.3 11
03 16.04 З 8-10
{10}
20 км позёмок {снег} 9/5 300 м
[Sc Ac lent Ci fib]
-15.6 -16.4 94 -27 -26 по сезону 1007.0 1006.1
06 16.04 ЮЗ 10-12
{12}
20 км позёмок {снег} 5/3 600 м
[Sc Ac lent]
-15.3 -18.6 76 -27 -27 прохладно 1007.2 1006.3
09 16.04 Ю 8
{13}
20 км позёмок 10/3 1000 м
[Sc Ac trans Ci fib]
-14.8 -18.0 77 -26 -26 по сезону 1008.0 1007.1
12 16.04 ЮЗ 11-15
{15}
20 км позёмок 10/0
[Ac und]
-14.6 -17.8 77 -27 -27 по сезону 1009.2 1008.3 -14.1 0.0
15 16.04 Ю 6
{15}
20 км позёмок 10/0
[Ac und]
-14.8 -18.4 74 -24 -24 по сезону 1009.7 1008.8
18 16.04 Ю 6
{14}
20 км позёмок 4/0
[Ac lent Ci fib]
-16.0 -19.4 75 -26 -26 по сезону 1010.2 1009.3
21 16.04 ЮЗ 6
{12}
20 км позёмок 8/0
[Ac trans Ci fib]
-17.6 -21.3 73 -28 -28 по сезону 1012.0 1011.1
00 17.04 штиль 0 20 км {метель} 4/0
[Ci fib]
-14.8 -18.9 71 -15 -11 тепло 1012.7 1011.8 -18.0 9
03 17.04 С 1 20 км 6/0
[Ac trans Ci fib]
-12.1 -18.3 60 -14 -9 тепло 1013.6 1012.7
06 17.04 СВ 2 20 км 3/0
[Ci fib]
-12.6 -15.8 77 -17 -13 по сезону 1014.1 1013.2
09 17.04 СЗ 3 20 км 3/0
[Ci fib]
-14.3 -17.3 78 -21 -20 по сезону 1015.4 1014.5
12 17.04 ЮВ 2 20 км ясно -18.0 -20.3 82 -23 -23 по сезону 1015.9 1015.0 -8.6
15 17.04 ЮЗ 2 20 км ясно -24.2 -25.5 89 -31 -31 опасность
обморожения
1017.1 1016.2
18 17.04 ЮЗ 2 20 км ясно -24.2 -25.6 88 -31 -31 опасность
обморожения
1017.0 1016.1
21 17.04 ЮЗ 2 20 км [диам. изморози 2 мм] ясно -25.5 -26.4 92 -32 -32 опасность
обморожения
1017.4 1016.4
00 18.04 З 2 20 км [диам. изморози 3 мм] ясно -20.6 -22.0 88 -27 -23 по сезону 1016.5 1015.6 -27.2 9
03 18.04 штиль 0 20 км 6/0
[Ci fib]
-14.2 -19.7 63 -14 -8 тепло 1015.2 1014.3
06 18.04 штиль 0 20 км 10/0
[Cs]
-12.6 -16.6 72 -13 -8 тепло 1014.5 1013.6
09 18.04 ЮЗ 4 20 км 4/0
[Ci fib]
-11.2 -15.9 68 -18 -18 по сезону 1014.5 1013.6
12 18.04 Ю 2 20 км 3/0
[Ci fib]
-15.1 -19.0 72 -20 -20 по сезону 1015.7 1014.8 -8.9
15 18.04 З 1 20 км 3/0
[Ci fib]
-20.1 -22.1 84 -23 -23 по сезону 1016.2 1015.3
18 18.04 З 1 20 км 10/8 1000 м
[Sc Ci fib]
-22.2 -23.7 88 -25 -25 по сезону 1015.5 1014.6
21 18.04 штиль 0 10 км слаб. снег 10/0
[Ac und]
-16.2 -17.7 88 -16 -16 тепло 1014.5 1013.6
00 19.04 Ю 7-10
{14}
20 км позёмок {снег} 10/0
[Ac trans Ci fib]
-7.3 -9.4 85 -16 -15 тепло 1014.1 1013.2 -23.2 0.0 9
03 19.04 Ю 6
{13}
20 км позёмок 10/0
[Ac trans Ci sp]
-5.5 -10.7 67 -13 -12 тепло 1014.3 1013.4
06 19.04 Ю 5 20 км позёмок 10/0
[Ac und]
-4.6 -10.8 62 -11 -11 тепло 1014.3 1013.4
09 19.04 Ю 4 20 км {метель} 10/0
[Ac trans Ci fib]
-4.5 -10.7 62 -10 -10 тепло 1014.7 1013.8
12 19.04 ЮЗ 3 20 км {метель} 10/0
[Ac trans Ci fib]
-7.0 -13.4 60 -12 -12 тепло 1014.7 1013.8 -3.5
15 19.04 ЮЗ 4 20 км 10/0
[Ac trans Ci fib]
-9.5 -15.8 60 -16 -16 тепло 1015.3 1014.4
18 19.04 З 3 20 км 10/0
[Ac trans Ci fib]
-14.0 -19.2 65 -20 -20 по сезону 1015.3 1014.4
21 19.04 З 3 20 км 3/0
[Ci fib]
-14.9 -19.5 68 -21 -21 по сезону 1015.8 1014.9
00 20.04 ЮЗ 2 20 км ясно -10.6 -16.9 60 -15 -11 тепло 1016.3 1015.4 -17.2 8
03 20.04 штиль 0 20 км 3/0
[Ci fib]
-6.8 -13.6 58 -7 0 тепло 1015.9 1015.0
06 20.04 СВ 4 20 км 1/0
[Ci fib]
-8.6 -10.1 89 -15 -12 по сезону 1015.8 1014.9
09 20.04 СВ 3 20 км 3/0
[Ci fib]
-8.7 -10.7 85 -15 -14 по сезону 1016.0 1015.1
12 20.04 СВ 4 20 км 10/0
[Ci]
-14.0 -14.3 98 -22 -22 по сезону 1015.2 1014.3 -4.1
15 20.04 СВ 6 20 км позёмок 10/0
[Cs]
-16.7 -17.0 98 -27 -27 по сезону 1013.8 1012.9
18 20.04 СЗ 2 20 км {метель} 10/0
[Cs]
-17.3 -17.7 97 -23 -23 по сезону 1012.7 1011.8
21 20.04 СВ 2 20 км 10/0
[Ac trans Cs]
-14.7 -16.5 86 -20 -19 по сезону 1010.8 1009.9
00 21.04 СВ 4 20 км {метель} 10/0
[Ac und]
-10.9 -14.3 76 -18 -17 по сезону 1008.6 1007.7 -19.5 8
03 21.04 ЮВ 7 20 км позёмок 10/0
[Ac trans Cs]
-9.5 -13.1 75 -19 -18 по сезону 1005.7 1004.8
06 21.04 В 8-10
{12}
20 км позёмок 10/0
[Ac lent Cs]
-8.4 -10.9 82 -18 -17 по сезону 1003.6 1002.7
09 21.04 С 2
{10}
20 км {метель} 10/0
[Cs]
-7.5 -9.7 84 -12 -11 тепло 1003.1 1002.2
12 21.04 штиль 0 20 км {метель} 10/0
[Cs]
-12.6 -13.0 97 -13 -13 тепло 1003.0 1002.1 -7.4
15 21.04 З 2 20 км 10/0
[Cs]
-14.8 -15.0 98 -20 -20 по сезону 1002.8 1001.9
18 21.04 З 3 20 км 10/0
[Cs]
-14.7 -15.6 93 -21 -21 по сезону 1002.6 1001.7
21 21.04 З 2 20 км 10/0
[Ac trans Ci fib]
-16.5 -18.4 85 -22 -21 по сезону 1002.6 1001.7
00 22.04 ЮЗ 2 20 км 8/0
[Ac trans Ci fib]
-8.6 -13.4 68 -13 -11 тепло 1002.9 1002.0 -17.9 9
03 22.04 СВ 3 20 км 10/0
[As op]
-6.7 -9.1 83 -12 -11 тепло 1002.7 1001.8
06 22.04 СВ 1 2000 м снег 10/0
[As op]
-3.7 -4.2 96 -6 -5 тепло 1004.0 1003.1
09 22.04 СВ 1 4000 м слаб. снег 10/0
[As op]
-3.2 -4.0 94 -6 -5 тепло 1004.4 1003.5
12 22.04 штиль 0 20 км {снег} 10/0
[Ac und]
-3.7 -5.9 85 -5 -5 тепло 1004.9 1004.0 -2.8 1
15 22.04 ЮЗ 3 20 км 6/0
[Ci fib]
-10.9 -12.9 85 -17 -17 по сезону 1005.3 1004.4

 

Местоположение метеостанции Тикси (Якутия, Россия): широта 71.58 долгота 128.90 высота над уровнем моря 7 м.

В архиве по умолчанию представлена погода в Тикси за последнюю неделю. Архивные данные за месяц целиком и за предыдущие месяцы, начиная с января 2011 года, Вы можете получить, выбрав интересующий диапазон дат из раскрывающегося списка и нажав кнопку "Ввод!".


*Определитесь, кто Вы:
робот инопланетянин человек

Внимание! Время в таблицах - всемирное. Для получения местного времени необходимо прибавить поправку, которая равна 9 ч.

Смотрите также архив погоды в соседних городах и на ближайших метеорологических станциях:

Погода на Мысе Быков (Якутия, Россия) (47 км)
Погода в Кюсюре (Якутия, Россия) (114 км)
Погода на Столб Острове (Якутия, Россия) (128 км)
Погода в Тюмяти (Якутия, Россия) (192 км)
Погода в Юбилейной (Якутия, Россия) (277 км)
Погода в Усть-Куйге (Якутия, Россия) (301 км)
Погода на Усть-Оленеке (Якутия, Россия) (346 км)
Погода в Джарджане (Якутия, Россия) (367 км)
Погода на Мысе Кигилях (Якутия, Россия) (413 км)
Погода в Батагай-Алыте (Якутия, Россия) (427 км)

Пояснения к столбцам:

Ветер - указаны скорость ветра в м/с - средняя за 10 мин, порывы в срок и между сроками (в фигурных скобках) и направление, откуда дует ветер: С - северный, СВ - северо-восточный, В - восточный, ЮВ - юго-восточный, Ю - южный, ЮЗ - юго-западный, З - западный, СЗ - северо-западный.
Видимость - горизонтальная дальность видимости в метрах или километрах. При видимости от 1 до 10 км при отсутствии осадков обычно наблюдается дымка, при ухудшении видимости до 1 км и менее - туман. В сухую погоду видимость может ухудшаться дымом, пылью или мглою.
Явления - указаны атмосферные явления, наблюдавшиеся в срок или в последний час перед сроком; фигурными скобками обозначены явления, наблюдавшиеся между сроками (за 1-3 часа до срока); квадратными скобками обозначены град или гололедные отложения с указанием их диаметра в мм.
Облачность - указаны через наклонную черту общая и нижняя облачность в баллах и высота нижней границы облаков в метрах; квадратными скобками обозначены формы облаков: Ci - перистые, Cs - перисто-слоистые, Cc - перисто-кучевые, Ac - высококучевые, As - высокослоистые, Sc - слоисто-кучевые, Ns - слоисто-дождевые, Cu - кучевые, Cb - кучево-дождевые. Подробнее классификацию облаков см. в Атласе облаков (PDF).
T - Температура воздуха - температура, измеренная на высоте 2 м над землей.
Td - Температура точки росы - температура, при понижении до которой содержащийся в воздухе водяной пар достигнет насыщения.
f - Относительная влажность воздуха - влажноcть воздуха, измеренная на высоте 2 м над землей.
Te - Эффективная температура - температура, которую ощущает одетый по сезону человек в тени. Характеристика душности погоды. При расчете учитывается влияние влажности воздуха и скорости ветра на теплоощущения человека.
Tes - Эффективная температура на солнце - температура, которую ощущает человек, с поправкой на солнечный нагрев. Характеристика знойности погоды. Зависит от высоты солнца над горизонтом, облачности и скорости ветра. Ночью, в пасмурную погоду, а также при ветре 12 м/с и более поправка равна нулю.
P - Атмосферное давление - приведенное к уровню моря атмосферное давление.
Po - Атмосферное давление - измеренное на уровне метеостанции атмосферное давление.
Tmin - Минимальная температура - минимум температуры воздуха на высоте 2 м над землей.
Tmax - Максимальная температура - максимум температуры воздуха на высоте 2 м над землей.
R - Количество осадков - Количество выпавших осадков за период времени, мм. При наведении курсора мыши на число - период времени, за который выпало указанное количество осадков.
R24 - Количество осадков - Количество выпавших осадков за 24 часа, мм.
S - Снежный покров - Высота снежного покрова, см. При наведении курсора мыши на число - состояние снежного покрова и степень покрытия местности в баллах.